DECAYED

STARLINK-3954, 52558 (Decayed)

Orbit data source: Space-Track

STARLINK-3954, 52558 was a payload satellite owned by SpaceX/Seattle (US) in LEO that was launched on Fri, 13 May 2022 UTC via an FALCON 9 launch vehicle from the Air Force Western Test Range (AFWTR). Payload-class satellites include a variety of spacecraft equipped with specific instruments for various scientific and technological missions. These include communications satellites like Starlink; space stations such as the ISS; scientific satellites like the Hubble; Earth observation satellites from companies like Planet Labs, Umbra, and HawkEye 360; GPS; miniature CubeSats for education and research; and military/defense satellites.

Not visible in the next 10 days
Identifier
52558, 2022-051AB
Orbit
Decayed
Country
Flag of USUS
Related business
Manufacturer
SpaceX/Seattle
Mission
Decayed Commercial Communications
Bus & Motor
STARLINK, Unknown motor
Mass
297 kg wet, ~275 kg dry
Launch date (UTC)
2022-05-13 (4 years ago)
Launch vehicle
FALCON 9
Launch site
Air Force Western Test Range (AFWTR)
Object type
Payload
Rocket body
Debris
Shape & HBR
Box + 1 Pan, 10.1 m
Radar Cross Section
13.562 m², Large (>1 m²)

Expand to show TLE details & history
Last TLE update: 1 year ago

TLE from 1 year ago
0 STARLINK-3954
1 52558U 22051AB  25151.26567219  .11378669  12608-4  20050-3 0  9999
2 52558  53.1988 283.0266 0006341 300.6835 140.3201 16.47386899169342
Epoch: 2025-05-31T06:22Z
TLE epoch observation values (Epoch: 2025-05-31T06:22:34.077Z)
Latitude
52.43425°
Longitude
13.62922°
Altitude
155.734 km
Speed
7.817 km/s
True Right ascension
23h 53m 07s
True Declination
52° 15' 09"
Sunlit
Object was in daylight at epoch
Visualization orbit readout
Latitude
Unknown
Longitude
Unknown
Altitude
Unknown
Speed
Unknown
Apparent Right ascension
Unknown
Apparent Declination
Unknown
Sunlit
N/A
Visualization observer readout
Local Sidereal Time
00:39:38
Azimuth
Unknown
Elevation
Unknown
Doppler factor
Unknown
Orbital elements
Apogee altitude
150.625 km
Perigee altitude
142.351 km
Semi-major axis
6,524.625 km
Eccentricity
0.00063
Inclination
53.1988°
RAAN
283.0266°
Arg. of periapsis
300.6835°
True anomaly
140.36647°
Mean anomaly
140.3201°
Eccentric anomaly
140.34329°
Mean motion
4.11822 °/min
Orbital period
87.42 mins
BSTAR
0.0002005
Loading maneuver chart data...
Computing Atmospheric mass density...
Loading historical data...
Loading historical data...
Loading historical data...
Loading historical data...
Loading historical data...
Loading historical data...
Loading historical data...

Documentation

Showing up to 5 results
|